sat.trackr.live / text

‹ back to catalog

STARLINK-3446

NORAD 51747 · 2022-016AK

PAYLOAD ACTIVE UNKNOWN

§ Identity

Operator
Country
US
Launch date
2022-02-21
Launch site
AFETR
Launch vehicle
Mass (kg)
RCS (m²)

Purposes: comms

External: N2YO · Heavens-Above · Gunter

§ Orbital elements

Epoch: 2026-09-20T04:40:56.190720Z

Period
94.01 min
Inclination
53.1594°
Eccentricity
0.0001245
Mean motion
15.31700493 rev/d
Perigee alt
469.9 km
Apogee alt
471.6 km
Semi-major
6,848.9 km
B*
1.8540e-5
RAAN
152.2447°
Arg perigee
95.4735°
Mean anomaly
264.6408°
Rev number
25,311

§ Raw data

STARLINK-34461 51747U 22016AK  26263.19509480  .00000210  00000+0  18540-4 0  99942 51747  53.1594 152.2447 0001245  95.4735 264.6408 15.31700493253118

JSON: /api/v1/satellites/51747 · /tle

For live sub-satellite position, see the globe view (requires WebGL).

§ Visibility from observer

Set your observer location to see the next 7 days of passes ≥ 10°. The values pass through the URL so the page stays shareable.

No JS? Fill the form by hand. The geolocation button needs JavaScript.